Location: Eucalyptus Hills
(32.8798°N, 116.9467°W)
Time: 12:50:45
(UTC+00:00)

Daily predictions for brighter satellites

Satellite Brightness Start Highest point End
(mag) Time Altitude Azimuth Time Altitude Azimuth Time Altitude Azimuth
Cosmos 2058 Rocket 3.2 12:01:07 10° N 12:05:38 81° E 12:10:08 10° S
Cosmos 2322 Rocket 2.2 12:00:05 10° SSW 12:05:43 86° WNW 12:11:27 10° NNE
Tsikada Rocket 4.1 12:01:37 10° S 12:08:02 84° W 12:14:27 10° N
USA 129 3.6 12:11:38 11° WNW 12:11:38 11° WNW 12:11:46 10° WNW
Atlas Centaur 2 3.1 12:06:04 11° SW 12:12:25 41° SSE 12:17:39 10° E
IRAS Rocket 4.2 12:07:35 10° S 12:13:07 77° WSW 12:18:45 10° NNW
Cosmos 1606 Rocket 4.3 12:11:02 10° NNW 12:14:56 32° W 12:18:51 10° SSW
USA 238 DEB 3.6 12:09:17 10° SSW 12:15:47 81° WNW 12:22:32 10° NNE
USA 238 3.6 12:09:24 10° SSW 12:15:53 82° WNW 12:22:39 10° NNE
Cosmos 1726 Rocket 4.0 12:11:59 10° NNW 12:16:05 40° W 12:20:12 10° SSW
ALOS 2.4 12:12:10 10° N 12:16:46 60° WNW 12:21:20 10° SSW
Cosmos 2263 Rocket 2.2 12:15:35 10° NNW 12:21:13 72° WSW 12:26:51 10° SSE
Cosmos 389 Rocket 2.4 12:21:20 10° NNW 12:24:48 66° W 12:28:12 10° S
Cosmos 1331 Rocket 4.0 12:20:44 10° SSW 12:25:48 63° WNW 12:30:57 10° N
Intelsat 5-3 Rocket 4.2 12:23:45 10° SW 12:28:26 21° S 12:31:11 10° SE
